Powrót do katalogu

COSMOS 504

AktywnyMilitariaLEO
NORAD 6117·PAYLOAD·🇷🇺 Russia

Wystrzelony Jul 20, 1972 z Plesetsk Cosmodrome

Loading…

Następne Przeloty (najbliższe 24 godziny)

TLE

ŚwieżeSource: Space-Track

Epoka: Sep 14, 2026, 11:50 UTC

1 06117U 72057A   26257.49349744 -.00000022  00000-0 -26051-4 0  9996
2 06117  74.0241 261.8187 0112117 208.8314 225.8319 12.63627421497887

Śledź COSMOS 504 w czasie rzeczywistym z AllMySat

Download on the App Store